Location: Armidale
(30.5016°S, 151.6662°E)
Time: 08:06:17
(UTC+10:00)

N. Korean satellite - Pass Details

Date: 15 May 2021
Orbit: 450 x 500 km, 97.2° (Epoch: 18 June)

Event Time Altitude Azimuth Distance (km) Brightness Sun altitude
Rises 04:35:58 0° 11° (N) 2,462 10.4 -24.9°
Reaches altitude 10° 04:37:58 10° 10° (N) 1,603 9.4 -24.5°
Enters shadow 04:39:02 19° 9° (N) 1,159 8.6 -24.3°
